COSMOS 2251 DEB, 37498

Orbit data source: Space-Track

COSMOS 2251 DEB, 37498 is space debris in LEO originally from a launch on Wed, 16 Jun 1993 UTC launched from the Plesetsk Missile And Space Complex (PKMTR). The debris from Iridium 33, an American commercial communications satellite, has been tracked extensively since its accidental collision with the defunct Russian satellite Cosmos 2251 in 2009. This event, occurring at high speed in low Earth orbit (LEO), generated thousands of pieces of space debris, significantly increasing the risk of further collisions. The Iridium 33 debris cloud has impacted space traffic management and orbital debris mitigation strategies, making it a subject of ongoing study in space situational awareness.

Loading next visibility...
Identifier
37498, 1993-036BMB
Orbit
LEO
Country
Flag of CISCIS
Related business
Manufacturer
Unknown
Mission
Spacecraft
Bus & Motor
Unknown
Mass
Unknown
Launch date (UTC)
1993-06-16 (33 years ago)
Launch vehicle
Unknown
Launch site
Plesetsk Missile And Space Complex (PKMTR)
Object type
Payload
Rocket body
Debris
Shape & HBR
Unknown shape, 0.1 m
Radar Cross Section
Small (<0.1 m²)

Expand to show TLE details & history
Last TLE update: 7 hours ago

TLE from 7 hours ago
0 COSMOS 2251 DEB
1 37498U 93036BMB 26121.10154764  .00003784  00000-0  86610-3 0  9998
2 37498  74.0343 279.8969 0011160 315.7810  44.2461 14.55956075673822
Epoch: 2026-05-01T02:26Z
TLE epoch observation values (Epoch: 2026-05-01T02:26:13.716Z)
Latitude
0.00004°
Longitude
24.30113°
Altitude
703.237 km
Speed
7.507 km/s
True Right ascension
18h 39m 35s
True Declination
0° 00' 00"
Sunlit
Object was in full shadow at epoch
Visualization orbit readout
Latitude
Unknown
Longitude
Unknown
Altitude
Unknown
Speed
Unknown
Apparent Right ascension
Unknown
Apparent Declination
Unknown
Sunlit
N/A
Visualization observer readout
Local Sidereal Time
17:17:01
Azimuth
Unknown
Elevation
Unknown
Doppler factor
Unknown
Orbital elements
Apogee altitude
711.767 km
Perigee altitude
695.96 km
Semi-major axis
7,082.001 km
Eccentricity
0.00112
Inclination
74.0343°
RAAN
279.8969°
Arg. of periapsis
315.781°
True anomaly
44.33542°
Mean anomaly
44.2461°
Eccentric anomaly
44.29075°
Mean motion
3.64174 °/min
Orbital period
98.85 mins
BSTAR
0.0008661
Loading maneuver chart data...
Computing Atmospheric mass density...
Loading historical data...
Loading historical data...
Loading historical data...
Loading historical data...
Loading historical data...
Loading historical data...
Loading historical data...

Documentation

Showing up to 5 results
|